QPF
0.03 0.03 0.03 0.03 0.03 0.03 0.03 0.04 0.04 0.04 0.03 0.03 0.03 0.03 0.02 0.03 0.03 0.04 0.04 0.03 0.02 0.02 0.02 0.02 0.02 0.02 0.01 0.01 0.01 0.01 0.01 0.02 0.02 0.03 0.03 0.03 0.03 0.02 0.02 0.02 0.02 0.01 0.01
0.02 0.03 0.04 0.04 0.04 0.03 0.04 0.04 0.04 0.04 0.03 0.02 0.03 0.03 0.03 0.03 0.02 0.02 0.02 0.02 0.02 0.01 0.01 0.01 0.02 0.02 0.01 0.01 0.01 0.01 0.01 0.01 0.01 0.01 0.02 0.02 0.02 0.02 0.02 0.02 0.01 0.01 0.01
0.02 0.02 0.02 0.03 0.04 0.04 0.04 0.04 0.04 0.04 0.04 0.04 0.03 0.02 0.03 0.02 0.02 0.02 0.02 0.02 0.02 0.02 0.02 0.02 0.02 0.02 0.02 0.01 0.01 0.01 0.01 0.00 0.00 0.01 0.01 0.01 0.02 0.02 0.02 0.02 0.02 0.02 0.02
0.02 0.02 0.02 0.02 0.03 0.04 0.04 0.04 0.04 0.05 0.05 0.04 0.04 0.03 0.02 0.02 0.02 0.02 0.02 0.02 0.02 0.02 0.01 0.01 0.01 0.01 0.01 0.01 0.01 0.01 0.01 0.00 0.00 0.00 0.01 0.01 0.01 0.02 0.02 0.02 0.02 0.02 0.02
0.03 0.02 0.02 0.02 0.02 0.02 0.03 0.03 0.03 0.04 0.05 0.05 0.05 0.04 0.04 0.03 0.03 0.03 0.03 0.03 0.03 0.03 0.03 0.02 0.02 0.01 0.01 0.01 0.01 0.01 0.01 0.01 0.01 0.01 0.01 0.01 0.01 0.02 0.02 0.01 0.01 0.02 0.02
0.02 0.02 0.02 0.02 0.02 0.02 0.02 0.03 0.04 0.05 0.06 0.06 0.06 0.06 0.05 0.05 0.04 0.03 0.03 0.03 0.03 0.03 0.03 0.02 0.02 0.01 0.01 0.01 0.01 0.01 0.01 0.01 0.02 0.01 0.01 0.01 0.02 0.02 0.03 0.02 0.01 0.02 0.03
0.02 0.02 0.02 0.02 0.02 0.02 0.02 0.03 0.04 0.04 0.05 0.05 0.05 0.05 0.05 0.04 0.04 0.03 0.03 0.03 0.03 0.03 0.02 0.02 0.01 0.01 0.00 0.00 0.01 0.01 0.01 0.01 0.01 0.02 0.01 0.01 0.01 0.02 0.03 0.03 0.02 0.03 0.02
0.01 0.02 0.02 0.02 0.02 0.02 0.03 0.03 0.04 0.04 0.04 0.04 0.04 0.04 0.04 0.04 0.03 0.02 0.02 0.02 0.02 0.02 0.02 0.01 0.00 0.00 0.00 0.00 0.00 0.00 0.00 0.01 0.01 0.01 0.01 0.01 0.01 0.01 0.01 0.01 0.02 0.05 0.04
0.02 0.02 0.02 0.03 0.03 0.03 0.03 0.03 0.03 0.03 0.03 0.03 0.03 0.03 0.03 0.03 0.03 0.02 0.02 0.01 0.01 0.01 0.01 0.00 0.00 0.00 0.00 0.00 0.00 0.00 0.00 0.00 0.01 0.01 0.01 0.01 0.01 0.01 0.01 0.01 0.02 0.04 0.04
0.03 0.03 0.03 0.03 0.03 0.02 0.02 0.02 0.02 0.02 0.03 0.03 0.03 0.02 0.02 0.02 0.02 0.02 0.01 0.01 0.01 0.00 0.00 0.00 0.00 0.00 0.00 0.00 0.00 0.00 0.00 0.00 0.00 0.00 0.00 0.01 0.01 0.01 0.01 0.01 0.02 0.03 0.03
0.02 0.02 0.02 0.02 0.02 0.01 0.01 0.01 0.01 0.02 0.02 0.02 0.02 0.02 0.01 0.01 0.01 0.01 0.01 0.00 0.00 0.00 0.00 0.00 0.00 0.00 0.00 0.00 0.00 0.00 0.00 0.00 0.00 0.00 0.00 0.00 0.01 0.01 0.01 0.01 0.01 0.02 0.02
0.02 0.02 0.02 0.02 0.01 0.01 0.01 0.01 0.01 0.01 0.01 0.01 0.01 0.01 0.00 0.00 0.00 0.00 0.00 0.00 0.00 0.00 0.00 0.00 0.00 0.00 0.00 0.00 0.00 0.00 0.00 0.00 0.00 0.00 0.00 0.00 0.00 0.01 0.01 0.01 0.01 0.01 0.01
0.03 0.03 0.02 0.02 0.02 0.01 0.01 0.01 0.01 0.01 0.00 0.00 0.00 0.00 0.00 0.00 0.00 0.00 0.00 0.00 0.00 0.00 0.00 0.00 0.00 0.00 0.00 0.00 0.00 0.00 0.00 0.00 0.00 0.01 0.01 0.01 0.01 0.01 0.01 0.01 0.01 0.00 0.01
0.03 0.03 0.03 0.02 0.01 0.01 0.01 0.00 0.00 0.00 0.00 0.00 0.00 0.00 0.00 0.00 0.00 0.00 0.00 0.00 0.00 0.00 0.00 0.00 0.00 0.00 0.00 0.00 0.00 0.00 0.00 0.00 0.01 0.01 0.01 0.01 0.01 0.01 0.00 0.00 0.01 0.01 0.01
0.02 0.02 0.01 0.01 0.01 0.01 0.00 0.00 0.00 0.00 0.00 0.00 0.00 0.00 0.00 0.00 0.00 0.00 0.00 0.00 0.00 0.00 0.00 0.00 0.00 0.01 0.01 0.01 0.01 0.01 0.01 0.00 0.00 0.00 0.01 0.01 0.01 0.01 0.01 0.00 0.01 0.01 0.01
0.01 0.01 0.00 0.00 0.00 0.00 0.00 0.00 0.00 0.00 0.00 0.00 0.00 0.00 0.00 0.00 0.00 0.00 0.00 0.00 0.00 0.00 0.00 0.00 0.00 0.00 0.01 0.02 0.03 0.02 0.02 0.02 0.02 0.02 0.01 0.01 0.01 0.01 0.01 0.01 0.01 0.01 0.00
0.00 0.00 0.00 0.00 0.00 0.00 0.00 0.00 0.00 0.00 0.01 0.01 0.00 0.00 0.00 0.00 0.00 0.00 0.00 0.00 0.00 0.00 0.00 0.00 0.00 0.00 0.00 0.01 0.01 0.02 0.02 0.02 0.02 0.02 0.02 0.02 0.02 0.01 0.01 0.00 0.00 0.00 0.00
0.00 0.00 0.00 0.00 0.00 0.00 0.00 0.00 0.00 0.00 0.00 0.00 0.01 0.00 0.00 0.00 0.00 0.00 0.00 0.00 0.00 0.00 0.00 0.00 0.00 0.00 0.00 0.00 0.00 0.00 0.00 0.00 0.01 0.01 0.01 0.01 0.01 0.01 0.01 0.00 0.00 0.00 0.00
0.00 0.00 0.00 0.00 0.00 0.00 0.00 0.00 0.00 0.00 0.00 0.00 0.00 0.00 0.00 0.00 0.00 0.00 0.00 0.00 0.00 0.00 0.00 0.00 0.00 0.00 0.00 0.00 0.00 0.00 0.00 0.00 0.00 0.00 0.01 0.01 0.01 0.01 0.01 0.00 0.00 0.00 0.00
0.00 0.00 0.00 0.00 0.00 0.00 0.00 0.00 0.00 0.00 0.00 0.00 0.00 0.00 0.00 0.00 0.00 0.00 0.00 0.00 0.00 0.00 0.00 0.00 0.00 0.00 0.00 0.00 0.00 0.00 0.00 0.00 0.00 0.00 0.00 0.00 0.00 0.00 0.00 0.00 0.00 0.00 0.00
0.00 0.00 0.00 0.00 0.00 0.00 0.00 0.00 0.00 0.00 0.00 0.00 0.00 0.00 0.00 0.00 0.00 0.00 0.00 0.00 0.00 0.00 0.00 0.00 0.00 0.00 0.00 0.00 0.00 0.00 0.00 0.00 0.00 0.00 0.00 0.00 0.00 0.00 0.00 0.00 0.00 0.00 0.00
0.00 0.00 0.00 0.00 0.00 0.00 0.00 0.00 0.00 0.00 0.00 0.00 0.00 0.00 0.00 0.00 0.00 0.00 0.00 0.00 0.00 0.00 0.00 0.00 0.00 0.00 0.00 0.00 0.00 0.00 0.00 0.00 0.00 0.00 0.00 0.00 0.00 0.00 0.00 0.00 0.00 0.00 0.00
0.00 0.00 0.00 0.00 0.00 0.00 0.00 0.00 0.00 0.00 0.00 0.00 0.00 0.00 0.00 0.00 0.00 0.00 0.00 0.00 0.00 0.00 0.00 0.00 0.00 0.00 0.00 0.00 0.00 0.00 0.00 0.00 0.00 0.00 0.00 0.00 0.00 0.00 0.00 0.00 0.00 0.00 0.00
0.00 0.00 0.00 0.00 0.00 0.00 0.00 0.00 0.00 0.00 0.00 0.00 0.00 0.00 0.00 0.00 0.00 0.00 0.00 0.00 0.00 0.00 0.00 0.00 0.00 0.00 0.00 0.00 0.00 0.00 0.00 0.00 0.00 0.00 0.00 0.00 0.00 0.00 0.00 0.00 0.00 0.00 0.00
0.00 0.00 0.00 0.00 0.00 0.00 0.00 0.00 0.00 0.00 0.00 0.00 0.00 0.00 0.00 0.00 0.00 0.00 0.00 0.00 0.00 0.00 0.00 0.00 0.00 0.00 0.00 0.00 0.00 0.00 0.00 0.00 0.00 0.00 0.00 0.00 0.00 0.00 0.00 0.00 0.00 0.00 0.00
0.00 0.00 0.00 0.00 0.00 0.00 0.00 0.00 0.00 0.00 0.00 0.00 0.00 0.00 0.00 0.00 0.00 0.00 0.00 0.00 0.00 0.00 0.00 0.00 0.00 0.00 0.00 0.00 0.00 0.00 0.00 0.00 0.00 0.00 0.00 0.00 0.00 0.00 0.00 0.00 0.00 0.00 0.00
MSLP
1017.01 1016.78 1016.73 1016.85 1017.12 1017.48 1017.89 1018.29 1018.65 1018.93 1019.15 1019.29 1019.38 1019.44 1019.49 1019.54 1019.61 1019.70 1019.80 1019.91 1020.02 1020.13 1020.25 1020.38 1020.54 1020.76 1021.03 1021.39 1021.83 1022.33 1022.86 1023.40 1023.91 1024.34 1024.66 1024.87 1024.95 1024.94 1024.85 1024.73 1024.63 1024.56 1024.56
1018.06 1017.83 1017.74 1017.78 1017.93 1018.17 1018.45 1018.74 1019.01 1019.23 1019.40 1019.53 1019.61 1019.68 1019.75 1019.84 1019.94 1020.06 1020.20 1020.35 1020.50 1020.64 1020.78 1020.92 1021.07 1021.26 1021.50 1021.80 1022.17 1022.60 1023.07 1023.56 1024.02 1024.43 1024.76 1024.97 1025.08 1025.09 1025.03 1024.92 1024.82 1024.74 1024.72
1019.05 1018.84 1018.71 1018.68 1018.73 1018.85 1019.01 1019.19 1019.36 1019.51 1019.64 1019.74 1019.82 1019.90 1019.99 1020.10 1020.23 1020.39 1020.57 1020.77 1020.96 1021.15 1021.32 1021.49 1021.66 1021.84 1022.05 1022.31 1022.63 1022.99 1023.41 1023.84 1024.26 1024.65 1024.96 1025.19 1025.32 1025.35 1025.31 1025.23 1025.13 1025.04 1024.98
1019.90 1019.73 1019.58 1019.49 1019.46 1019.48 1019.53 1019.62 1019.72 1019.81 1019.91 1019.99 1020.07 1020.16 1020.27 1020.40 1020.55 1020.74 1020.96 1021.18 1021.42 1021.65 1021.86 1022.06 1022.25 1022.44 1022.64 1022.88 1023.15 1023.46 1023.82 1024.20 1024.57 1024.93 1025.23 1025.46 1025.61 1025.67 1025.66 1025.60 1025.50 1025.39 1025.30
1020.59 1020.44 1020.30 1020.17 1020.08 1020.03 1020.03 1020.05 1020.10 1020.17 1020.26 1020.34 1020.43 1020.53 1020.65 1020.79 1020.96 1021.15 1021.38 1021.62 1021.88 1022.14 1022.39 1022.62 1022.83 1023.03 1023.23 1023.44 1023.68 1023.94 1024.25 1024.57 1024.90 1025.22 1025.51 1025.74 1025.90 1025.98 1025.99 1025.94 1025.85 1025.73 1025.61
1021.09 1020.98 1020.84 1020.71 1020.59 1020.52 1020.48 1020.49 1020.53 1020.61 1020.71 1020.81 1020.92 1021.04 1021.16 1021.30 1021.45 1021.64 1021.85 1022.09 1022.35 1022.62 1022.88 1023.12 1023.35 1023.56 1023.76 1023.96 1024.16 1024.39 1024.64 1024.91 1025.19 1025.47 1025.73 1025.94 1026.10 1026.20 1026.23 1026.19 1026.11 1025.98 1025.84
1021.43 1021.35 1021.23 1021.10 1020.99 1020.92 1020.90 1020.92 1021.00 1021.11 1021.25 1021.39 1021.53 1021.66 1021.78 1021.90 1022.04 1022.19 1022.37 1022.58 1022.81 1023.07 1023.32 1023.57 1023.81 1024.02 1024.22 1024.40 1024.58 1024.76 1024.96 1025.17 1025.40 1025.63 1025.85 1026.03 1026.18 1026.28 1026.31 1026.29 1026.21 1026.09 1025.93
1021.64 1021.58 1021.49 1021.39 1021.30 1021.26 1021.28 1021.35 1021.48 1021.65 1021.84 1022.02 1022.19 1022.34 1022.46 1022.56 1022.66 1022.77 1022.90 1023.07 1023.27 1023.49 1023.73 1023.97 1024.20 1024.41 1024.60 1024.76 1024.91 1025.05 1025.20 1025.35 1025.52 1025.69 1025.85 1026.00 1026.13 1026.20 1026.24 1026.21 1026.14 1026.02 1025.85
1021.77 1021.73 1021.66 1021.59 1021.54 1021.55 1021.62 1021.75 1021.95 1022.17 1022.42 1022.65 1022.85 1023.01 1023.12 1023.20 1023.27 1023.33 1023.42 1023.53 1023.69 1023.88 1024.09 1024.32 1024.54 1024.74 1024.91 1025.06 1025.17 1025.28 1025.37 1025.46 1025.56 1025.67 1025.78 1025.88 1025.96 1026.01 1026.02 1025.99 1025.92 1025.79 1025.63
1021.84 1021.82 1021.78 1021.74 1021.74 1021.80 1021.92 1022.12 1022.37 1022.65 1022.94 1023.21 1023.43 1023.60 1023.71 1023.77 1023.81 1023.84 1023.88 1023.96 1024.08 1024.25 1024.44 1024.65 1024.85 1025.04 1025.20 1025.32 1025.41 1025.47 1025.51 1025.54 1025.58 1025.62 1025.67 1025.71 1025.75 1025.76 1025.74 1025.69 1025.60 1025.47 1025.31
1021.89 1021.89 1021.88 1021.88 1021.92 1022.02 1022.19 1022.43 1022.73 1023.05 1023.37 1023.66 1023.90 1024.07 1024.18 1024.23 1024.25 1024.27 1024.29 1024.35 1024.45 1024.59 1024.77 1024.97 1025.16 1025.33 1025.47 1025.57 1025.62 1025.65 1025.64 1025.63 1025.61 1025.59 1025.57 1025.56 1025.54 1025.51 1025.45 1025.37 1025.26 1025.12 1024.95
1021.93 1021.96 1021.98 1022.02 1022.10 1022.24 1022.45 1022.71 1023.03 1023.37 1023.70 1024.00 1024.24 1024.42 1024.53 1024.58 1024.60 1024.62 1024.64 1024.69 1024.79 1024.93 1025.10 1025.28 1025.46 1025.61 1025.73 1025.81 1025.84 1025.82 1025.78 1025.72 1025.66 1025.59 1025.53 1025.46 1025.39 1025.31 1025.22 1025.10 1024.96 1024.80 1024.61
1021.99 1022.05 1022.10 1022.18 1022.30 1022.47 1022.70 1022.98 1023.30 1023.63 1023.96 1024.25 1024.48 1024.65 1024.77 1024.83 1024.87 1024.89 1024.93 1025.00 1025.11 1025.25 1025.41 1025.58 1025.74 1025.88 1025.97 1026.02 1026.02 1025.99 1025.92 1025.83 1025.73 1025.63 1025.53 1025.43 1025.33 1025.21 1025.07 1024.92 1024.74 1024.54 1024.33
1022.05 1022.15 1022.25 1022.37 1022.53 1022.72 1022.96 1023.25 1023.55 1023.87 1024.17 1024.44 1024.66 1024.82 1024.94 1025.02 1025.07 1025.12 1025.18 1025.27 1025.39 1025.53 1025.68 1025.84 1025.98 1026.09 1026.15 1026.18 1026.16 1026.10 1026.02 1025.92 1025.81 1025.70 1025.58 1025.46 1025.33 1025.19 1025.02 1024.83 1024.61 1024.38 1024.13
1022.13 1022.27 1022.43 1022.59 1022.78 1023.01 1023.26 1023.53 1023.82 1024.10 1024.37 1024.61 1024.81 1024.96 1025.08 1025.17 1025.24 1025.31 1025.39 1025.49 1025.61 1025.75 1025.89 1026.02 1026.13 1026.20 1026.24 1026.24 1026.21 1026.14 1026.05 1025.96 1025.86 1025.76 1025.65 1025.53 1025.40 1025.24 1025.05 1024.82 1024.57 1024.30 1024.01
1022.20 1022.40 1022.61 1022.82 1023.06 1023.30 1023.56 1023.83 1024.09 1024.34 1024.58 1024.78 1024.95 1025.09 1025.20 1025.29 1025.37 1025.46 1025.55 1025.65 1025.77 1025.88 1025.99 1026.09 1026.16 1026.20 1026.21 1026.18 1026.14 1026.08 1026.01 1025.93 1025.86 1025.79 1025.71 1025.61 1025.49 1025.33 1025.12 1024.88 1024.59 1024.28 1023.94
1022.26 1022.51 1022.77 1023.04 1023.32 1023.59 1023.86 1024.12 1024.36 1024.58 1024.78 1024.94 1025.09 1025.20 1025.30 1025.39 1025.47 1025.56 1025.65 1025.74 1025.83 1025.92 1025.99 1026.04 1026.07 1026.07 1026.05 1026.01 1025.97 1025.92 1025.88 1025.84 1025.81 1025.78 1025.74 1025.67 1025.57 1025.42 1025.22 1024.96 1024.65 1024.29 1023.92
1022.30 1022.60 1022.91 1023.22 1023.53 1023.83 1024.10 1024.35 1024.58 1024.77 1024.94 1025.08 1025.19 1025.29 1025.37 1025.45 1025.52 1025.60 1025.67 1025.74 1025.80 1025.85 1025.88 1025.88 1025.87 1025.84 1025.80 1025.76 1025.72 1025.70 1025.69 1025.70 1025.72 1025.74 1025.74 1025.72 1025.64 1025.50 1025.30 1025.03 1024.70 1024.32 1023.91
1022.31 1022.64 1022.98 1023.33 1023.66 1023.97 1024.25 1024.50 1024.71 1024.88 1025.02 1025.13 1025.23 1025.30 1025.37 1025.44 1025.50 1025.56 1025.61 1025.65 1025.68 1025.69 1025.67 1025.64 1025.60 1025.55 1025.50 1025.46 1025.45 1025.45 1025.49 1025.55 1025.62 1025.69 1025.73 1025.73 1025.68 1025.56 1025.36 1025.08 1024.73 1024.33 1023.90
1022.29 1022.63 1022.98 1023.34 1023.69 1024.00 1024.28 1024.51 1024.70 1024.86 1024.98 1025.08 1025.16 1025.23 1025.29 1025.35 1025.40 1025.44 1025.47 1025.48 1025.48 1025.45 1025.41 1025.36 1025.29 1025.23 1025.19 1025.17 1025.19 1025.23 1025.31 1025.41 1025.53 1025.63 1025.71 1025.73 1025.69 1025.57 1025.37 1025.09 1024.73 1024.31 1023.86
1022.23 1022.56 1022.91 1023.26 1023.59 1023.89 1024.15 1024.37 1024.55 1024.69 1024.81 1024.89 1024.97 1025.04 1025.10 1025.15 1025.20 1025.23 1025.25 1025.24 1025.22 1025.18 1025.12 1025.05 1024.99 1024.94 1024.91 1024.93 1024.97 1025.06 1025.18 1025.32 1025.46 1025.59 1025.68 1025.71 1025.66 1025.54 1025.32 1025.03 1024.66 1024.24 1023.78
1022.14 1022.44 1022.76 1023.07 1023.37 1023.64 1023.88 1024.08 1024.24 1024.37 1024.48 1024.57 1024.65 1024.73 1024.79 1024.85 1024.90 1024.93 1024.95 1024.94 1024.91 1024.87 1024.81 1024.75 1024.70 1024.68 1024.68 1024.73 1024.82 1024.94 1025.09 1025.25 1025.41 1025.54 1025.63 1025.64 1025.58 1025.44 1025.21 1024.90 1024.53 1024.11 1023.66
1022.03 1022.28 1022.54 1022.81 1023.06 1023.29 1023.49 1023.66 1023.80 1023.92 1024.03 1024.13 1024.22 1024.30 1024.39 1024.46 1024.52 1024.56 1024.58 1024.58 1024.56 1024.53 1024.48 1024.45 1024.43 1024.44 1024.48 1024.56 1024.69 1024.84 1025.02 1025.19 1025.35 1025.47 1025.53 1025.53 1025.44 1025.26 1025.01 1024.69 1024.31 1023.90 1023.47
1021.90 1022.09 1022.29 1022.49 1022.68 1022.85 1023.01 1023.15 1023.27 1023.38 1023.49 1023.59 1023.70 1023.80 1023.90 1023.99 1024.06 1024.12 1024.15 1024.17 1024.16 1024.14 1024.12 1024.12 1024.13 1024.18 1024.26 1024.39 1024.54 1024.73 1024.91 1025.09 1025.24 1025.34 1025.38 1025.34 1025.21 1025.01 1024.73 1024.40 1024.02 1023.62 1023.21
1021.74 1021.86 1022.00 1022.13 1022.26 1022.38 1022.49 1022.59 1022.69 1022.79 1022.90 1023.01 1023.12 1023.24 1023.35 1023.46 1023.55 1023.61 1023.66 1023.69 1023.70 1023.70 1023.71 1023.73 1023.78 1023.87 1023.99 1024.15 1024.33 1024.53 1024.73 1024.91 1025.05 1025.13 1025.13 1025.06 1024.91 1024.68 1024.39 1024.05 1023.67 1023.29 1022.91
1021.55 1021.61 1021.68 1021.76 1021.83 1021.90 1021.97 1022.04 1022.11 1022.20 1022.30 1022.41 1022.53 1022.65 1022.77 1022.88 1022.98 1023.05 1023.11 1023.14 1023.17 1023.19 1023.22 1023.27 1023.35 1023.47 1023.62 1023.81 1024.02 1024.24 1024.44 1024.62 1024.75 1024.81 1024.80 1024.70 1024.53 1024.29 1023.99 1023.65 1023.29 1022.93 1022.58
Thickness
5588 5588 5587 5587 5588 5588 5589 5589 5589 5589 5590 5591 5592 5592 5592 5592 5592 5593 5592 5592 5592 5591 5591 5591 5590 5590 5591 5590 5590 5589 5586 5584 5577 5571 5569 5567 5565 5564 5562 5561 5559 5557 5555
5575 5575 5575 5575 5575 5575 5575 5576 5576 5576 5577 5578 5579 5579 5579 5579 5579 5579 5579 5578 5578 5578 5578 5578 5577 5578 5577 5577 5577 5576 5574 5572 5568 5562 5557 5555 5554 5553 5551 5550 5549 5547 5545
5563 5563 5562 5562 5562 5563 5563 5563 5564 5564 5564 5565 5566 5566 5566 5566 5567 5566 5566 5565 5565 5565 5566 5565 5565 5565 5564 5563 5563 5562 5561 5560 5557 5552 5546 5543 5542 5542 5540 5539 5539 5537 5536
5552 5551 5550 5550 5550 5550 5551 5552 5552 5552 5552 5552 5553 5553 5553 5554 5554 5554 5554 5553 5553 5553 5553 5553 5553 5553 5552 5552 5551 5549 5548 5546 5543 5539 5535 5532 5531 5530 5529 5527 5526 5526 5525
5541 5540 5539 5539 5539 5539 5540 5540 5540 5541 5540 5540 5541 5541 5541 5542 5542 5542 5542 5542 5541 5541 5541 5541 5542 5542 5542 5541 5540 5537 5536 5534 5530 5526 5523 5521 5519 5518 5517 5516 5515 5514 5515
5531 5531 5530 5530 5529 5529 5529 5529 5529 5529 5529 5529 5529 5529 5530 5530 5531 5532 5532 5530 5530 5530 5530 5530 5531 5531 5531 5530 5530 5529 5527 5524 5520 5516 5513 5511 5510 5509 5508 5508 5506 5505 5505
5523 5522 5521 5521 5520 5520 5520 5520 5519 5518 5518 5518 5518 5518 5518 5519 5521 5522 5522 5522 5521 5520 5520 5521 5522 5521 5521 5520 5520 5520 5518 5516 5514 5510 5506 5504 5503 5502 5501 5500 5499 5498 5498
5516 5515 5514 5513 5512 5512 5511 5511 5510 5510 5510 5509 5509 5510 5510 5510 5512 5514 5514 5513 5512 5512 5512 5512 5511 5511 5512 5511 5511 5509 5507 5506 5505 5503 5501 5499 5499 5497 5496 5495 5493 5493 5494
5510 5509 5508 5507 5506 5505 5504 5503 5503 5503 5503 5502 5502 5502 5502 5503 5505 5506 5506 5505 5504 5503 5504 5504 5504 5503 5503 5503 5502 5499 5498 5497 5498 5497 5496 5495 5494 5494 5492 5490 5489 5487 5487
5505 5504 5503 5502 5501 5500 5498 5497 5497 5497 5496 5496 5495 5494 5495 5495 5497 5498 5499 5498 5496 5495 5496 5496 5496 5496 5496 5495 5493 5491 5489 5489 5490 5490 5491 5491 5491 5490 5489 5487 5486 5484 5483
5501 5499 5498 5497 5496 5495 5493 5492 5492 5491 5490 5489 5488 5487 5487 5488 5489 5490 5491 5491 5490 5489 5489 5488 5489 5490 5490 5489 5488 5486 5485 5485 5484 5484 5484 5485 5486 5486 5486 5486 5486 5484 5483
5498 5496 5494 5493 5493 5492 5490 5488 5487 5486 5484 5482 5481 5480 5480 5482 5483 5484 5485 5486 5486 5484 5483 5483 5484 5486 5486 5486 5485 5484 5483 5482 5481 5480 5479 5479 5481 5482 5484 5486 5486 5486 5486
5494 5492 5491 5490 5489 5488 5486 5485 5483 5482 5480 5478 5477 5476 5476 5477 5478 5479 5480 5481 5481 5480 5480 5481 5482 5483 5483 5482 5482 5481 5480 5478 5477 5476 5475 5476 5478 5480 5483 5484 5486 5486 5488
5491 5490 5488 5486 5485 5484 5483 5482 5480 5479 5477 5476 5475 5473 5472 5472 5473 5474 5475 5476 5477 5477 5477 5478 5479 5480 5479 5479 5478 5478 5477 5476 5474 5473 5473 5475 5477 5479 5481 5482 5483 5483 5484
5490 5488 5486 5484 5482 5480 5479 5478 5477 5477 5477 5476 5474 5472 5470 5469 5469 5471 5471 5471 5472 5472 5473 5474 5474 5473 5473 5473 5473 5474 5474 5473 5473 5472 5473 5474 5475 5477 5479 5481 5481 5481 5481
5488 5486 5484 5482 5480 5479 5477 5475 5476 5477 5477 5477 5476 5473 5472 5471 5470 5470 5470 5470 5471 5471 5470 5468 5468 5468 5469 5469 5469 5470 5471 5471 5471 5472 5472 5473 5473 5475 5476 5479 5480 5480 5480
5489 5487 5485 5483 5481 5479 5477 5476 5475 5475 5476 5475 5474 5473 5472 5471 5470 5469 5470 5470 5470 5470 5467 5466 5466 5466 5467 5467 5468 5468 5469 5470 5471 5471 5472 5472 5473 5474 5476 5477 5478 5479 5480
5491 5490 5488 5486 5484 5482 5480 5478 5477 5475 5473 5473 5474 5474 5473 5472 5471 5470 5470 5469 5468 5468 5466 5466 5466 5466 5467 5468 5468 5468 5469 5469 5470 5470 5471 5471 5472 5473 5475 5476 5477 5479 5480
5494 5493 5491 5490 5489 5487 5485 5482 5480 5478 5476 5475 5474 5474 5475 5473 5472 5472 5470 5468 5467 5467 5467 5467 5468 5468 5468 5469 5469 5468 5469 5469 5469 5469 5469 5470 5471 5472 5473 5475 5477 5479 5480
5498 5498 5497 5495 5493 5492 5490 5487 5485 5483 5480 5479 5477 5477 5476 5474 5473 5472 5472 5470 5469 5469 5470 5470 5470 5471 5470 5470 5469 5469 5469 5468 5468 5468 5469 5469 5471 5472 5473 5475 5476 5478 5479
5502 5502 5502 5500 5498 5497 5496 5494 5492 5489 5486 5484 5484 5484 5482 5479 5477 5476 5475 5475 5474 5474 5474 5473 5473 5473 5472 5471 5471 5470 5469 5468 5468 5468 5469 5470 5471 5472 5474 5475 5477 5479 5480
5507 5506 5505 5504 5503 5502 5501 5500 5498 5495 5493 5492 5490 5489 5488 5484 5483 5481 5481 5481 5481 5480 5479 5478 5477 5476 5475 5474 5473 5472 5470 5469 5469 5469 5470 5471 5472 5473 5474 5476 5477 5478 5480
5512 5512 5511 5510 5509 5509 5507 5505 5504 5502 5500 5499 5497 5495 5493 5490 5489 5488 5488 5487 5487 5486 5484 5483 5481 5479 5478 5478 5477 5476 5474 5473 5472 5472 5471 5472 5473 5473 5474 5475 5477 5479 5480
5518 5517 5516 5515 5514 5513 5512 5511 5510 5509 5507 5505 5503 5501 5499 5497 5496 5495 5494 5493 5492 5491 5489 5487 5486 5484 5482 5481 5480 5479 5478 5477 5476 5475 5475 5474 5474 5475 5476 5477 5478 5480 5480
5524 5523 5522 5522 5521 5520 5518 5517 5516 5515 5514 5512 5510 5508 5506 5504 5503 5502 5501 5499 5497 5496 5494 5492 5490 5488 5487 5485 5484 5483 5482 5480 5480 5479 5478 5477 5477 5477 5478 5478 5479 5480 5481
5531 5531 5530 5529 5528 5527 5525 5524 5523 5521 5520 5519 5517 5515 5513 5511 5510 5508 5507 5505 5503 5501 5499 5497 5495 5494 5492 5490 5488 5487 5485 5484 5483 5482 5481 5480 5480 5480 5479 5479 5480 5480 5481